TimeBST,TemperatureF,Dew PointF,Humidity,Sea Level PressureIn,VisibilityMPH,Wind Direction,Wind SpeedMPH,Gust SpeedMPH,PrecipitationIn,Events,Conditions,WindDirDegrees,DateUTC
12:20 AM,64.4,59.0,83,29.95,-9999.0,SW,8.1,-,N/A,,Clear,220,2013-07-23 23:20:00
12:50 AM,64.4,59.0,83,29.95,-9999.0,SW,9.2,-,N/A,,Clear,230,2013-07-23 23:50:00
1:20 AM,62.6,59.0,88,29.95,6.2,SW,8.1,-,N/A,,Unknown,220,2013-07-24 00:20:00
1:50 AM,62.6,57.2,82,29.95,6.2,SW,5.8,-,N/A,,Partly Cloudy,230,2013-07-24 00:50:00
2:20 AM,62.6,57.2,82,29.95,6.2,SW,5.8,-,N/A,,Mostly Cloudy,220,2013-07-24 01:20:00
2:50 AM,62.6,57.2,82,29.95,6.2,SW,8.1,-,N/A,,Scattered Clouds,230,2013-07-24 01:50:00
3:20 AM,60.8,57.2,88,29.95,6.2,WSW,8.1,-,N/A,,Partly Cloudy,250,2013-07-24 02:20:00
3:50 AM,61,56,77,29.95,15,SW,8.1,,,,,230,2013-07-24 02:50:00
3:50 AM,59.0,57.2,94,29.95,6.2,WSW,8.1,-,N/A,,Partly Cloudy,240,2013-07-24 02:50:00
4:20 AM,59.0,55.4,88,29.95,-9999.0,WSW,5.8,-,N/A,,Clear,240,2013-07-24 03:20:00
4:50 AM,59.0,55.4,88,29.95,-9999.0,WSW,5.8,-,N/A,,Clear,250,2013-07-24 03:50:00
5:20 AM,57.2,55.4,94,29.95,-9999.0,West,5.8,-,N/A,,Clear,270,2013-07-24 04:20:00
5:50 AM,59.0,57.2,94,29.98,-9999.0,WSW,6.9,-,N/A,,Clear,250,2013-07-24 04:50:00
6:20 AM,60.8,57.2,88,29.98,-9999.0,WSW,6.9,-,N/A,,Clear,250,2013-07-24 05:20:00
6:50 AM,62,56,75,29.97,11,West,4.6,,,,,270,2013-07-24 05:50:00
6:50 AM,60.8,57.2,88,29.98,-9999.0,WSW,5.8,-,N/A,,Clear,250,2013-07-24 05:50:00
7:20 AM,62.6,57.2,82,29.98,-9999.0,West,4.6,-,N/A,,Clear,280,2013-07-24 06:20:00
7:50 AM,62.6,57.2,82,29.98,-9999.0,West,5.8,-,N/A,,Clear,280,2013-07-24 06:50:00
8:20 AM,64.4,59.0,83,29.98,-9999.0,West,8.1,-,N/A,,Clear,280,2013-07-24 07:20:00
8:50 AM,64.4,59.0,83,29.98,-9999.0,West,8.1,-,N/A,,Clear,280,2013-07-24 07:50:00
9:20 AM,64.4,59.0,83,29.98,-9999.0,West,8.1,-,N/A,,Clear,260,2013-07-24 08:20:00
9:50 AM,68,58,64,29.99,10,WSW,10.4,,,,Scattered Clouds,240,2013-07-24 08:50:00
9:50 AM,66.2,59.0,78,29.98,6.2,WSW,10.4,23.0,N/A,,Partly Cloudy,250,2013-07-24 08:50:00
10:20 AM,66.2,59.0,78,29.98,-9999.0,West,10.4,-,N/A,,Clear,270,2013-07-24 09:20:00
10:50 AM,68.0,59.0,73,29.98,6.2,SW,10.4,-,N/A,,Partly Cloudy,230,2013-07-24 09:50:00
11:20 AM,69.8,59.0,68,29.98,6.2,WSW,9.2,-,N/A,,Partly Cloudy,240,2013-07-24 10:20:00
11:50 AM,71.6,59.0,64,29.98,6.2,WSW,8.1,-,N/A,,Partly Cloudy,250,2013-07-24 10:50:00
12:20 PM,75.2,59.0,57,29.98,6.2,WSW,8.1,-,N/A,,Partly Cloudy,240,2013-07-24 11:20:00
12:50 PM,77,57,39,29.97,12,SSW,10.4,,,,Scattered Clouds,200,2013-07-24 11:50:00
12:50 PM,75.2,57.2,53,29.98,6.2,WSW,9.2,-,N/A,,Partly Cloudy,240,2013-07-24 11:50:00
1:20 PM,78.8,55.4,44,29.95,6.2,SW,8.1,-,N/A,,Partly Cloudy,230,2013-07-24 12:20:00
1:50 PM,78.8,55.4,44,29.95,6.2,SW,8.1,-,N/A,,Partly Cloudy,230,2013-07-24 12:50:00
2:20 PM,80.6,53.6,39,29.95,6.2,WSW,12.7,-,N/A,,Scattered Clouds,250,2013-07-24 13:20:00
2:50 PM,80.6,53.6,39,29.95,-9999.0,SW,15.0,27.6,N/A,,Clear,230,2013-07-24 13:50:00
3:20 PM,78.8,55.4,44,29.95,6.2,SW,12.7,-,N/A,,Partly Cloudy,230,2013-07-24 14:20:00
3:50 PM,80.6,57.2,45,29.95,6.2,SW,12.7,-,N/A,,Partly Cloudy,230,2013-07-24 14:50:00
4:20 PM,78.8,57.2,47,29.95,6.2,WSW,16.1,-,N/A,,Mostly Cloudy,240,2013-07-24 15:20:00
4:50 PM,80.6,57.2,45,29.95,6.2,SW,16.1,-,N/A,,Scattered Clouds,230,2013-07-24 15:50:00
5:20 PM,78.8,57.2,47,29.95,6.2,SW,13.8,-,N/A,,Partly Cloudy,220,2013-07-24 16:20:00
5:50 PM,78.8,57.2,47,29.95,6.2,SSW,11.5,-,N/A,,Partly Cloudy,210,2013-07-24 16:50:00
6:20 PM,77.0,57.2,50,29.92,6.2,SW,12.7,-,N/A,,Partly Cloudy,230,2013-07-24 17:20:00
6:50 PM,76,57,41,29.93,17,SW,13.8,,,,Scattered Clouds,220,2013-07-24 17:50:00
6:50 PM,77.0,59.0,54,29.92,6.2,SW,13.8,-,N/A,,Partly Cloudy,230,2013-07-24 17:50:00
7:20 PM,75.2,59.0,57,29.92,6.2,WSW,13.8,-,N/A,,Partly Cloudy,240,2013-07-24 18:20:00
7:50 PM,73.4,59.0,61,29.92,6.2,SW,12.7,-,N/A,,Partly Cloudy,220,2013-07-24 18:50:00
8:20 PM,73.4,57.2,57,29.92,-9999.0,SW,11.5,-,N/A,,Clear,230,2013-07-24 19:20:00
8:50 PM,71.6,59.0,64,29.95,-9999.0,SW,11.5,-,N/A,,Clear,230,2013-07-24 19:50:00
9:20 PM,69.8,59.0,68,29.95,-9999.0,SSW,9.2,-,N/A,,Clear,210,2013-07-24 20:20:00
9:50 PM,70,58,56,29.96,13,South,9.2,,,,Scattered Clouds,190,2013-07-24 20:50:00
9:50 PM,69.8,59.0,68,29.95,-9999.0,SSW,9.2,-,N/A,,Clear,210,2013-07-24 20:50:00
10:20 PM,68.0,59.0,73,29.95,-9999.0,SSW,8.1,-,N/A,,Clear,210,2013-07-24 21:20:00
10:50 PM,68.0,59.0,73,29.95,-9999.0,SW,9.2,20.7,N/A,,Clear,220,2013-07-24 21:50:00
11:20 PM,68.0,57.2,68,29.95,-9999.0,SSW,6.9,-,N/A,,Clear,210,2013-07-24 22:20:00
11:50 PM,66.2,59.0,78,29.95,-9999.0,South,4.6,-,N/A,,Clear,190,2013-07-24 22:50:00